Date String (YYYY-MM-DD hh:mm:ss) UTC,Instrument flags,absolute air pressure of the measurement (hPa),sample flow rate (lpm),inlet stack bypass flow (lpm),air temperature of the measurement (°C),ambient temperature measured by the external sensor (°C),aerosol sample conditioner tube jacket temperature (°C),OPC LED temperature (°C),internal box temperature (°C),relative humidity of the measurement (%),span deviation,mass concentration of particles derived from Lorenz-Mie calculation of OPC scattering (μg/m³),mass concentration of particles derived from Lorenz-Mie calculation of OPC scattering (μg/m³),mass concentration of particles derived from Lorenz-Mie calculation of OPC scattering (μg/m³)
DateTimeUTC,F1_M11,P_M11,Q1_M11,Q2_M11,T1_M11,T2_M11,T3_M11,T4_M11,T5_M11,U1_M11,ZSPAN_M11,X2_M11,X0_M11,X1_M11
2024-06-02 17:00:00,SystemResetWarning,0824.4,4.99,000.00,029.5,028.0,000.0,038.0,031.0,023.1,0000.0,0004.49,0011.65,0003.52
2024-06-02 17:01:00,SystemResetWarning,0824.4,4.99,000.00,029.6,028.3,000.0,038.0,031.1,023.3,0000.0,0004.46,0011.33,0003.53
2024-06-02 17:02:00,SystemResetWarning,0824.4,5.00,000.00,029.6,028.5,000.0,038.0,031.3,023.0,0000.0,0004.39,0011.33,0003.54
2024-06-02 17:03:00,SystemResetWarning,0824.3,5.01,000.00,029.7,028.7,000.0,038.0,031.3,023.3,0000.0,0004.37,0011.78,0003.54
2024-06-02 17:04:00,SystemResetWarning,0824.4,5.00,000.00,029.7,028.9,000.0,038.0,031.4,023.5,0000.0,0004.36,0011.71,0003.54
2024-06-02 17:05:00,SystemResetWarning,0824.4,5.00,000.00,029.8,029.1,000.0,038.0,031.5,024.3,0000.0,0004.32,0011.67,0003.54
2024-06-02 17:06:00,SystemResetWarning,0824.4,5.00,000.00,029.8,029.2,000.0,038.0,031.6,023.7,0000.0,0004.32,0012.05,0003.54
2024-06-02 17:07:00,SystemResetWarning,0824.3,5.00,000.00,029.9,029.3,000.0,038.1,031.7,023.3,0000.0,0004.36,0012.72,0003.55
2024-06-02 17:08:00,SystemResetWarning,0824.4,5.00,000.00,029.9,029.4,000.0,038.1,031.7,023.7,0000.0,0004.37,0012.71,0003.54
2024-06-02 17:09:00,SystemResetWarning,0824.4,4.98,000.00,029.9,028.7,000.0,038.2,031.3,023.7,0000.0,0004.36,0013.13,0003.55
2024-06-02 17:10:00,SystemResetWarning,0824.3,5.00,000.00,029.5,026.5,000.0,038.2,030.2,024.1,0000.0,0004.37,0013.67,0003.55
2024-06-02 17:11:00,SystemResetWarning,0824.3,5.02,000.00,029.2,025.9,000.0,038.2,029.9,024.2,0000.0,0004.37,0013.85,0003.55
2024-06-02 17:12:00,SystemResetWarning,0824.3,5.00,000.00,029.1,026.5,000.0,038.1,030.1,024.3,0000.0,0004.40,0013.76,0003.56
2024-06-02 17:13:00,SystemResetWarning,0824.2,5.00,000.00,029.1,026.9,000.0,037.9,030.4,024.4,0000.0,0004.45,0014.16,0003.57
2024-06-02 17:14:00,SystemResetWarning,0824.1,5.00,000.00,029.1,027.3,000.0,037.8,030.6,024.3,0000.0,0004.49,0014.02,0003.58
2024-06-02 17:15:00,SystemResetWarning,0824.1,5.00,000.00,029.2,027.7,000.0,037.8,030.8,024.3,0000.0,0004.48,0015.85,0003.58
2024-06-02 17:16:00,SystemResetWarning,0824.1,4.99,000.00,029.3,028.0,000.0,037.7,030.9,024.0,0000.0,0004.49,0015.40,0003.57
2024-06-02 17:17:00,SystemResetWarning,0824.0,4.99,000.00,029.3,028.3,000.0,037.7,031.0,023.7,0000.0,0004.45,0015.03,0003.56
2024-06-02 17:18:00,SystemResetWarning,0824.0,5.00,000.00,029.4,028.5,000.0,037.7,031.1,023.6,0000.0,0004.43,0014.46,0003.57
2024-06-02 17:19:00,SystemResetWarning,0824.0,5.01,000.00,029.4,028.7,000.0,037.7,031.2,024.8,0000.0,0004.42,0015.65,0003.56
2024-06-02 17:20:00,SystemResetWarning,0824.0,5.00,000.00,029.5,028.8,000.0,037.7,031.3,023.7,0000.0,0004.42,0015.43,0003.54
2024-06-02 17:21:00,SystemResetWarning,0824.0,4.99,000.00,029.6,029.0,000.0,037.8,031.3,023.6,0000.0,0004.42,0014.80,0003.54
2024-06-02 17:22:00,SystemResetWarning,0824.0,4.99,000.00,029.6,029.1,000.0,037.8,031.4,024.1,0000.0,0004.44,0015.14,0003.52
2024-06-02 17:23:00,SystemResetWarning,0824.0,4.99,000.00,029.7,029.2,000.0,037.8,031.5,023.8,0000.0,0004.43,0015.51,0003.51
2024-06-02 17:24:00,SystemResetWarning,0823.9,5.00,000.00,029.8,029.3,000.0,037.8,031.5,023.2,0000.0,0004.40,0015.73,0003.49
2024-06-02 17:25:00,SystemResetWarning,0823.9,5.00,000.00,029.8,029.4,000.0,037.9,031.6,023.4,0000.0,0004.35,0015.39,0003.46
2024-06-02 17:26:00,SystemResetWarning,0823.9,4.99,000.00,029.8,028.8,000.0,038.0,031.3,023.7,0000.0,0004.32,0013.44,0003.45
2024-06-02 17:27:00,SystemResetWarning,0823.9,5.00,000.00,029.5,026.7,000.0,038.0,030.3,024.5,0000.0,0004.32,0014.40,0003.45
2024-06-02 17:28:00,SystemResetWarning,0824.0,5.02,000.00,029.2,026.0,000.0,038.0,029.9,024.8,0000.0,0004.32,0014.61,0003.45
2024-06-02 17:29:00,SystemResetWarning,0824.0,4.99,000.00,029.1,026.5,000.0,037.9,030.1,024.3,0000.0,0004.33,0014.61,0003.45
2024-06-02 17:30:00,SystemResetWarning,0824.0,5.00,000.00,029.1,026.9,000.0,037.8,030.3,025.0,0000.0,0004.34,0013.45,0003.46
2024-06-02 17:31:00,SystemResetWarning,0824.0,5.00,000.00,029.1,027.3,000.0,037.7,030.6,024.7,0000.0,0004.34,0012.92,0003.46
2024-06-02 17:32:00,SystemResetWarning,0824.0,5.00,000.00,029.2,027.7,000.0,037.7,030.7,024.9,0000.0,0004.33,0013.74,0003.46
2024-06-02 17:33:00,SystemResetWarning,0824.0,5.00,000.00,029.2,028.0,000.0,037.6,030.8,025.0,0000.0,0004.33,0013.97,0003.46
2024-06-02 17:34:00,SystemResetWarning,0824.0,5.00,000.00,029.3,028.3,000.0,037.6,031.0,023.6,0000.0,0004.38,0013.74,0003.46
2024-06-02 17:35:00,SystemResetWarning,0824.0,4.99,000.00,029.3,028.5,000.0,037.6,031.0,023.8,0000.0,0004.43,0013.54,0003.46
2024-06-02 17:36:00,SystemResetWarning,0823.9,4.99,000.00,029.4,028.7,000.0,037.6,031.1,023.1,0000.0,0004.42,0012.85,0003.47
2024-06-02 17:37:00,SystemResetWarning,0823.9,5.00,000.00,029.5,028.8,000.0,037.7,031.2,023.0,0000.0,0004.43,0013.64,0003.47
2024-06-02 17:38:00,SystemResetWarning,0823.9,5.00,000.00,029.5,029.0,000.0,037.7,031.3,022.9,0000.0,0004.41,0013.25,0003.46
2024-06-02 17:39:00,SystemResetWarning,0823.9,5.00,000.00,029.6,029.1,000.0,037.7,031.4,022.5,0000.0,0004.38,0013.46,0003.45
2024-06-02 17:40:00,SystemResetWarning,0823.9,5.00,000.00,029.7,029.2,000.0,037.7,031.4,023.8,0000.0,0004.37,0013.40,0003.45
2024-06-02 17:41:00,SystemResetWarning,0823.9,5.01,000.00,029.7,029.3,000.0,037.8,031.5,022.6,0000.0,0004.33,0013.49,0003.44
2024-06-02 17:42:00,SystemResetWarning,0823.8,5.00,000.00,029.7,028.7,000.0,037.9,031.2,025.3,0000.0,0004.32,0013.55,0003.44
2024-06-02 17:43:00,SystemResetWarning,0823.8,4.99,000.00,029.4,026.4,000.0,037.9,030.0,025.8,0000.0,0004.38,0013.63,0003.44
2024-06-02 17:44:00,SystemResetWarning,0823.8,5.02,000.00,029.0,025.8,000.0,037.9,029.7,025.5,0000.0,0004.41,0012.98,0003.44
2024-06-02 17:45:00,SystemResetWarning,0823.8,5.00,000.00,028.9,026.3,000.0,037.8,029.9,026.0,0000.0,0004.35,0013.21,0003.45
2024-06-02 17:46:00,SystemResetWarning,0823.8,5.00,000.00,028.9,026.7,000.0,037.7,030.2,024.1,0000.0,0004.32,0013.68,0003.45
2024-06-02 17:47:00,SystemResetWarning,0823.8,5.00,000.00,029.0,027.2,000.0,037.6,030.4,025.9,0000.0,0004.39,0014.48,0003.48
2024-06-02 17:48:00,SystemResetWarning,0823.8,5.00,000.00,029.0,027.5,000.0,037.5,030.6,024.6,0000.0,0004.42,0014.15,0003.50
2024-06-02 17:49:00,SystemResetWarning,0823.8,5.01,000.00,029.1,027.9,000.0,037.5,030.7,024.0,0000.0,0004.46,0013.81,0003.52
2024-06-02 17:50:00,SystemResetWarning,0823.8,4.99,000.00,029.1,028.1,000.0,037.5,030.9,023.3,0000.0,0004.49,0013.53,0003.54
2024-06-02 17:51:00,SystemResetWarning,0823.8,5.00,000.00,029.2,028.3,000.0,037.5,031.0,022.5,0000.0,0004.55,0013.52,0003.56
2024-06-02 17:52:00,SystemResetWarning,0823.8,5.00,000.00,029.3,028.5,000.0,037.5,031.1,022.4,0000.0,0004.57,0013.44,0003.57
2024-06-02 17:53:00,SystemResetWarning,0823.8,5.00,000.00,029.4,028.7,000.0,037.5,031.2,022.8,0000.0,0004.57,0013.32,0003.59
2024-06-02 17:54:00,SystemResetWarning,0823.8,5.00,000.00,029.4,028.9,000.0,037.6,031.2,022.6,0000.0,0004.53,0013.20,0003.61
2024-06-02 17:55:00,SystemResetWarning,0823.8,5.00,000.00,029.5,029.0,000.0,037.6,031.3,022.9,0000.0,0004.53,0012.79,0003.61
2024-06-02 17:56:00,SystemResetWarning,0823.8,5.00,000.00,029.6,029.1,000.0,037.6,031.4,022.5,0000.0,0004.55,0013.20,0003.62
2024-06-02 17:57:00,SystemResetWarning,0823.8,5.00,000.00,029.6,029.1,000.0,037.7,031.4,022.4,0000.0,0004.55,0012.56,0003.63
2024-06-02 17:58:00,SystemResetWarning,0823.8,4.98,000.00,029.5,027.4,000.0,037.8,030.6,023.6,0000.0,0004.48,0012.13,0003.63
2024-06-02 17:59:00,SystemResetWarning,0823.6,5.03,000.00,029.1,025.7,000.0,037.8,029.8,024.3,0000.0,0004.47,0012.92,0003.62
